Regional Weather Roundup
Issued by NWS

Home | Current Version | Previous Version | Text Only | Print | Product List | Glossary Off
Versions: 1 2 3 4 5 6 7 8 9 10 11 12 13 14 15 16 17 18 19 20 21 22 23 24 25 26 27 28 29 30 31 32 33 34 35 36 37 38 39 40 41 42 43 44 45 46 47 48 49 50

000
ASUS43 KMKX 221900
RWRWI

WISCONSIN REGIONAL WEATHER ROUNDUP
NATIONAL WEATHER SERVICE MILWAUKEE/SULLIVAN WI
200 PM CDT FRI JUL 22 2016

NOTE: "FAIR" INDICATES FEW OR NO CLOUDS BELOW 12,000 FEET WITH NO
SIGNIFICANT WEATHER AND/OR OBSTRUCTIONS TO VISIBILITY.

WIZ001-002-006>008-014>016-023>028-222000-
NORTHWEST WISCONSIN

CITY           SKY/WX    TMP DP  RH WIND       PRES   REMARKS
SUPERIOR ARPT  SUNNY     90  67  46 W7        29.98F HX  93
ASHLAND        SUNNY     90  62  39 W10       29.99S HX  90
HAYWARD        SUNNY     89  59  36 VRB5      30.03F HX  88
SIREN          NOT AVBL
CUMBERLAND     SUNNY     86  63  45 CALM      30.05S HX  87
RICE LAKE      SUNNY     87  63  44 CALM      30.05S HX  87
CHETEK         SUNNY     88  65  46 CALM      30.03F HX  89
LADYSMITH      SUNNY     87  63  44 W5        30.05F HX  88
EAU CLAIRE     NOT AVBL
MENOMONIE      SUNNY     93  64  38 SE6       30.02F HX  94
NEW RICHMOND   SUNNY     92  49  23 E5        30.02F HX  89
OSCEOLA        SUNNY     89  59  36 CALM      30.05S HX  88
$$

WIZ003>005-009-010-017-018-222000-
NORTH CENTRAL WISCONSIN

CITY           SKY/WX    TMP DP  RH WIND       PRES   REMARKS
MANITOWISH WTR SUNNY     87  59  38 NW8G17    30.03S HX  86
ARBOR VITAE    SUNNY     86  60  40 W6        30.04S HX  86
WOODRUFF       SUNNY     86  60  40 W6        30.04S HX  86
RHINELANDER    SUNNY     90  59  35 W9        30.05S HX  89
EAGLE RIVER    SUNNY     87  56  35 W10G16    30.03S HX  85
LAND O LAKES   SUNNY     88  53  30 W6        30.03F HX  86
PHILLIPS       SUNNY     85  63  47 CALM      30.04S HX  86
TOMAHAWK       SUNNY     86  60  40 W8        30.04S HX  86
MEDFORD        SUNNY     85  65  49 W6        30.05S HX  87
MERRILL        SUNNY     87  65  47 NW8       30.03F HX  89
$$

WIZ029-030-035-036-043>047-222000-
CENTRAL WISCONSIN

CITY           SKY/WX    TMP DP  RH WIND       PRES   REMARKS
WAUSAU         SUNNY     90  57  32 W9        30.00F HX  88
MOSINEE        SUNNY     90  57  33 W7        30.04S HX  88
MARSHFIELD     SUNNY     89  64  43 NW9       30.03S HX  90
STEVENS POINT  SUNNY     87  62  43 NW5       30.02S HX  87
WAUPACA        SUNNY     92  64  39 CALM      30.00S HX  94
WAUTOMA        MOSUNNY   89  71  55 CALM      30.01S HX  95
WISC RAPIDS    SUNNY     91  63  39 NW9       30.03S HX  92
CAMP DOUGLAS   NOT AVBL
$$

WIZ011>013-019>022-031-037>040-048>050-222000-
NORTHEAST WISCONSIN

CITY           SKY/WX    TMP DP  RH WIND       PRES   REMARKS
ANTIGO         SUNNY     86  64  47 NW3       30.04S HX  87
SHAWANO        SUNNY     91  65  42 CALM      29.99S HX  92
OCONTO         SUNNY     89  65  45 W9        29.97S HX  90
STURGEON BAY   SUNNY     88  65  46 SW8       29.99S HX  90
GREEN BAY      SUNNY     87  71  58 SW6       29.98F HX  93
MANITOWOC      NOT AVBL
APPLETON       MOSUNNY   88  64  45 CALM      29.99S HX  89
CLINTONVILLE   SUNNY     90  55  31 W8        29.99S HX  88
OSHKOSH        SUNNY     88  71  57 W5        30.00S HX  94
$$

WIZ032>034-041-042-053>061-222000-
SOUTHWEST WISCONSIN

CITY           SKY/WX    TMP DP  RH WIND       PRES   REMARKS
LA CROSSE      SUNNY     90  76  63 CALM      30.00F HX 101
SPARTA         MOSUNNY   87  76  70 W6        30.02F HX  97
VIROQUA        PTSUNNY   84  76  76 CALM      30.05F HX  94
BOSCOBEL       CLOUDY    84  75  74 SW5       30.02F HAZE    HX  92
PRAIRIE DU CHI CLOUDY    84  73  69 CALM      30.01F HX  90
PLATTEVILLE    CLOUDY    83  77  82 SW3       30.05F HX  91
$$

WIZ056-057-062-063-064-067-068-222000-
SOUTH CENTRAL WISCONSIN

CITY           SKY/WX    TMP DP  RH WIND       PRES   REMARKS
REEDSBURG      CLOUDY   N/A N/A N/A W3        30.03S
BARABOO/DELLS  CLOUDY    86  74  68 SW7       30.03F HX  94
LONE ROCK      NOT AVBL
MINERAL POINT  CLOUDY    82  77  83 SW5       30.06S HX  91
MADISON        PTSUNNY   85  74  69 CALM      30.02F HX  92
MIDDLETON      MOSUNNY   87  74  64 SW3       30.04S HX  95
WATERTOWN      MOSUNNY   86  75  70 W5        30.02F HX  95
MONROE         SUNNY     84  72  65 W7        30.05S HX  89
JANESVILLE     CLOUDY    86  73  66 MISG      30.02F HX  93
$$

WIZ051-052-058>065-066-070>072-222000-
SOUTHEAST WISCONSIN

CITY           SKY/WX    TMP DP  RH WIND       PRES   REMARKS
MILWAUKEE      MOSUNNY   88  71  57 E7        30.00F HX  94
WAUKESHA       MOSUNNY   86  70  58 NW7       30.03S HX  90
MILWAUKEE/TIMM MOSUNNY   90  66  45 W5        30.01F HX  92
RACINE         MOSUNNY   88  70  55 E7        30.02F HX  93
BURLINGTON     SUNNY     86  70  59 CALM      30.02F HX  91
KENOSHA        MOSUNNY   88  72  58 VRB6      30.02S HX  94
FOND DU LAC    SUNNY     90  68  48 W7        30.01S HX  94
SHEBOYGAN      SUNNY     89  66  46 W5        30.00S HX  91
WEST BEND      SUNNY     88  70  55 W5        30.01F HX  92
JUNEAU         MOSUNNY   85  74  68 SW6       30.04S HX  92
$$

LSZ147-162-222000-
LAKE SUPERIOR

STATION/POSITION TIME  TEMP    WIND        PRES    WAVE
                       AIR SEA DIR/SP/G            HT/PER
                 (UTC) (F)     (DEG/KT/KT) (MB)    (FT/S)
W MID LAKE BUOY  1750   63 57  220/ 10/ 12 1013.4S   1/ 4
DEVILS ISLAND    1800   73     230/  9/ 15 1014.3F
SAXON HARBOR     1800   87     260/  7/ 12 1014.9
$$

LMZ867-665-643>646-222000-
LAKE MICHIGAN

STATION/POSITION TIME  TEMP    WIND        PRES    WAVE
                       AIR SEA DIR/SP/G            HT/PER
                 (UTC) (F)     (DEG/KT/KT) (MB)    (FT/S)
CHAMBERS ISLAND  1800   85     190/  5/  7 1014.2F
S GREEN BAY BUOY 1800   77 74  180/  6/  8   N/A
N MID LAKE BUOY  1750   71 69  230/  4/  4 1013.7S   1/ 5
NORTHPORT PIER   1800   86     280/  5/  9 1014.2S
KEWAUNEE LAKESHO 1800   70     170/  5/  6 1014.9F
SHEBOYGAN LAKESH 1800   72     170/ 15/ 15 1015.9F
PORT WASHINGTON  1800   77     190/  6/  8 1016.9R
ATWATER BUOY     1800   65 57  140/  4/  6 1018.1R
MILWAUKEE LAKESH 1810   71     130/  2/  3   N/A
S MID LAKE BUOY  1750   72 72  190/  8/ 10 1015.7F   1/ 3
KENOSHA   LAKESH 1800   83     360/  5/  7 1015.6F
$$

TC  - TEMPERATURE IN CELSIUS
VSB - VISIBILITY IN STATUTE MILES
WCI - WIND CHILL INDEX
HX  - HEAT INDEX





USA.gov is the U.S. government's official web portal to all federal, state and local government web resources and services.